Date String (YYYY-MM-DD hh:mm:ss) UTC,Instrument flags,Ambient pressure (hPa),Sample flow (lpm),Bypass flow (lpm),Sample temperature (°C),Ambient temperature (°C),ASC tube jacket temperature (°C),LED temperature (°C),Box temperature (°C),Sample RH (%),Span deviation,Mass concentration (μg/m³),Mass concentration (μg/m³),Mass concentration (μg/m³)
DateTimeUTC,F1_M11,P_M11,Q1_M11,Q2_M11,T1_M11,T2_M11,T3_M11,T4_M11,T5_M11,U1_M11,ZSPAN_M11,X0_M11,X2_M11,X1_M11
2022-07-25 08:00:00,,0828.9,5.00,0.00,31.8,27.9,00.0,40.2,32.5,33.9,-000.1,0011.99,0007.95,0006.99
2022-07-25 08:01:00,,0828.6,5.00,0.00,31.6,27.9,00.0,40.2,32.4,34.1,-000.2,0011.86,0007.88,0006.94
2022-07-25 08:02:00,,0828.5,5.01,0.00,31.5,28.0,00.0,40.2,32.4,34.4,-000.5,0011.74,0007.83,0006.92
2022-07-25 08:03:00,,0828.5,4.99,0.00,31.4,28.1,00.0,40.1,32.4,34.5,-000.4,0011.84,0007.80,0006.86
2022-07-25 08:04:00,,0828.4,5.00,0.00,31.3,28.2,00.0,40.1,32.3,34.5,-000.0,0011.78,0007.71,0006.79
2022-07-25 08:05:00,,0828.4,4.99,0.00,31.3,28.4,00.0,40.1,32.3,34.6,0000.0,0011.71,0007.66,0006.77
2022-07-25 08:06:00,,0828.4,5.01,0.00,31.3,28.5,00.0,40.0,32.4,34.7,0000.0,0011.64,0007.62,0006.75
2022-07-25 08:07:00,,0828.4,5.00,0.00,31.2,28.6,00.0,40.0,32.4,34.9,0000.0,0011.36,0007.53,0006.73
2022-07-25 08:08:00,,0828.4,5.00,0.00,31.3,28.7,00.0,40.0,32.4,35.3,0000.0,0011.57,0007.56,0006.74
2022-07-25 08:09:00,,0828.3,5.01,0.00,31.5,28.8,00.0,39.9,32.6,34.9,0000.0,0011.61,0007.56,0006.74
2022-07-25 08:10:00,,0828.4,5.00,0.00,31.7,28.8,00.0,39.9,32.7,34.3,0000.0,0011.63,0007.56,0006.72
2022-07-25 08:11:00,,0828.4,5.00,0.00,31.8,28.9,00.0,39.9,32.7,34.1,0000.0,0011.69,0007.56,0006.68
2022-07-25 08:12:00,,0828.4,5.00,0.00,31.8,29.0,00.0,39.9,32.6,34.4,0000.0,0011.70,0007.55,0006.67
2022-07-25 08:13:00,,0828.5,4.99,0.00,31.9,29.0,00.0,40.0,32.6,34.5,0000.0,0011.75,0007.55,0006.65
2022-07-25 08:14:00,,0828.5,5.00,0.00,31.8,29.1,00.0,40.0,32.6,34.6,0000.0,0011.66,0007.54,0006.67
2022-07-25 08:15:00,,0828.5,5.01,0.00,31.8,29.1,00.0,40.0,32.6,35.0,0000.0,0011.98,0007.59,0006.72
2022-07-25 08:16:00,,0828.4,5.00,0.00,31.9,29.2,00.0,40.1,32.7,35.1,0000.0,0012.58,0007.67,0006.76
2022-07-25 08:17:00,,0828.5,4.99,0.00,32.1,29.2,00.0,40.1,32.9,34.6,0000.0,0012.83,0007.74,0006.79
2022-07-25 08:18:00,,0828.5,4.99,0.00,32.2,29.2,00.0,40.1,32.9,34.4,0000.0,0013.48,0007.87,0006.83
2022-07-25 08:19:00,,0828.5,5.01,0.00,32.3,29.3,00.0,40.2,32.9,34.3,0000.0,0013.86,0007.96,0006.85
2022-07-25 08:20:00,,0828.5,4.99,0.00,32.3,29.3,00.0,40.2,32.8,34.3,0000.0,0014.53,0007.99,0006.85
2022-07-25 08:21:00,,0828.5,5.01,0.00,32.3,29.3,00.0,40.3,32.9,34.3,0000.0,0014.97,0008.08,0006.88
2022-07-25 08:22:00,,0828.5,5.00,0.00,32.2,29.4,00.0,40.3,32.9,34.3,0000.0,0015.58,0008.10,0006.93
2022-07-25 08:23:00,,0828.6,5.00,0.00,32.2,29.4,00.0,40.3,32.9,34.4,0000.0,0015.79,0008.19,0006.98
2022-07-25 08:24:00,,0828.9,5.00,0.00,32.2,29.4,00.0,40.4,32.9,34.5,0000.0,0016.01,0008.30,0007.03
2022-07-25 08:25:00,,0828.9,5.00,0.00,32.2,28.8,00.0,40.3,32.8,34.4,0000.0,0016.24,0008.36,0007.03
2022-07-25 08:26:00,,0829.1,4.99,0.00,32.1,28.2,00.0,40.2,32.7,34.5,0000.0,0016.16,0008.39,0007.02
2022-07-25 08:27:00,,0829.0,5.00,0.00,32.0,27.9,00.0,40.2,32.6,34.7,0000.0,0015.61,0008.36,0006.99
2022-07-25 08:28:00,,0829.1,5.00,0.00,31.8,27.9,00.0,40.2,32.4,35.0,0000.0,0015.87,0008.38,0006.97
2022-07-25 08:29:00,,0828.9,5.01,0.00,31.8,28.0,00.0,40.2,32.5,35.1,0000.0,0016.21,0008.45,0006.95
2022-07-25 08:30:00,,0828.8,5.00,0.00,31.9,28.1,00.0,40.2,32.6,34.8,0000.0,0015.65,0008.38,0006.90
2022-07-25 08:31:00,,0828.6,5.00,0.00,32.0,28.2,00.0,40.1,32.6,34.7,0000.0,0015.13,0008.32,0006.87
2022-07-25 08:32:00,,0829.0,4.99,0.00,32.0,28.3,00.0,40.1,32.6,34.6,0000.0,0015.20,0008.29,0006.84
2022-07-25 08:33:00,,0828.9,5.00,0.00,32.0,28.5,00.0,40.2,32.6,34.8,0000.0,0014.96,0008.33,0006.84
2022-07-25 08:34:00,,0828.6,5.01,0.00,32.0,28.6,00.0,40.2,32.6,34.8,0000.0,0015.33,0008.35,0006.83
2022-07-25 08:35:00,,0828.6,5.00,0.00,32.0,28.7,00.0,40.2,32.6,34.9,0000.0,0015.37,0008.31,0006.82
2022-07-25 08:36:00,,0828.9,4.99,0.00,31.9,28.8,00.0,40.2,32.6,35.0,0000.0,0015.86,0008.33,0006.84
2022-07-25 08:37:00,,0829.1,5.02,0.00,32.0,28.9,00.0,40.2,32.6,35.0,0000.0,0016.28,0008.33,0006.85
2022-07-25 08:38:00,,0828.7,4.99,0.00,32.1,28.9,00.0,40.2,32.8,34.7,0000.0,0016.37,0008.34,0006.87
2022-07-25 08:39:00,,0829.0,5.00,0.00,32.2,29.0,00.0,40.2,32.8,34.5,0000.0,0016.18,0008.31,0006.89
2022-07-25 08:40:00,,0829.0,5.01,0.00,32.2,29.0,00.0,40.2,32.8,34.5,0000.0,0015.98,0008.27,0006.92
2022-07-25 08:41:00,,0829.1,4.99,0.00,32.2,29.1,00.0,40.3,32.8,34.4,0000.0,0016.17,0008.29,0006.96
2022-07-25 08:42:00,,0828.6,5.00,0.00,32.2,29.1,00.0,40.3,32.8,34.4,0000.0,0016.30,0008.37,0007.01
2022-07-25 08:43:00,,0828.5,5.02,0.00,32.2,29.2,00.0,40.3,32.8,34.4,0000.0,0015.63,0008.38,0007.05
2022-07-25 08:44:00,,0828.5,5.00,0.00,32.1,29.2,00.0,40.3,32.8,34.5,0001.5,0015.53,0008.32,0007.04
2022-07-25 08:45:00,,0828.5,5.00,0.00,32.1,29.3,00.0,40.4,32.8,34.5,0002.6,0015.55,0008.30,0007.05
2022-07-25 08:46:00,,0828.5,5.01,0.00,32.1,29.3,00.0,40.4,32.8,34.4,0002.3,0016.08,0008.28,0007.05
2022-07-25 08:47:00,,0828.5,4.99,0.00,32.0,29.3,00.0,40.4,32.8,34.4,0000.0,0016.21,0008.20,0007.02
2022-07-25 08:48:00,,0828.5,5.00,0.00,32.0,29.4,00.0,40.4,32.8,34.4,0000.0,0015.67,0008.16,0006.99
2022-07-25 08:49:00,,0828.5,5.00,0.00,32.0,29.4,00.0,40.4,32.8,34.4,0002.2,0015.84,0008.13,0006.95
2022-07-25 08:50:00,,0828.5,4.99,0.00,31.9,29.3,00.0,40.4,32.8,34.4,0003.2,0015.96,0008.12,0006.92
2022-07-25 08:51:00,,0828.5,5.02,0.00,31.9,28.5,00.0,40.3,32.8,34.5,0003.9,0015.71,0008.05,0006.89
2022-07-25 08:52:00,,0828.5,5.01,0.00,31.8,28.0,00.0,40.2,32.6,34.8,0000.6,0015.28,0007.93,0006.85
2022-07-25 08:53:00,,0828.5,4.99,0.00,31.7,27.9,00.0,40.2,32.5,35.0,0000.0,0015.01,0007.88,0006.85
2022-07-25 08:54:00,,0828.5,5.00,0.00,31.6,27.9,00.0,40.2,32.4,35.2,0000.0,0015.21,0007.90,0006.85
2022-07-25 08:55:00,,0828.6,5.00,0.00,31.8,28.0,00.0,40.1,32.6,35.0,0000.0,0015.30,0007.91,0006.84
2022-07-25 08:56:00,,0829.1,5.00,0.00,32.0,28.1,00.0,40.1,32.6,34.7,0000.0,0014.79,0007.84,0006.82
2022-07-25 08:57:00,,0829.1,4.99,0.00,32.0,28.3,00.0,40.1,32.6,34.5,0000.0,0014.00,0007.85,0006.81
2022-07-25 08:58:00,,0829.0,5.00,0.00,32.0,28.4,00.0,40.1,32.6,34.4,0000.0,0013.56,0007.92,0006.84
2022-07-25 08:59:00,,0828.7,4.99,0.00,32.0,28.5,00.0,40.1,32.5,34.6,0000.0,0013.91,0008.00,0006.88
